GW6978 Weather Reports


Display with metric or nautical units.
time (UTC)temp
F
wind
direction
speed
MPH
gust
MPH
rain 1hr
in
rain 24hr
in
rain mn
in
humidity
%
barometer
mb
20260502190726 88 211 4.0 8.0 0.00 0.00 0.00 59 1018.9
20260502190607 88 166 4.0 8.0 0.00 0.00 0.00 59 1019.0
20260502190510 88 201 3.0 8.0 0.00 0.00 0.00 59 1018.9
20260502190412 88 224 4.0 8.0 0.00 0.00 0.00 59 1019.0
20260502190314 88 185 3.0 7.0 0.00 0.00 0.00 60 1019.0
20260502190221 89 120 3.0 7.0 0.00 0.00 0.00 59 1019.1
20260502190123 89 219 3.0 7.0 0.00 0.00 0.00 59 1019.0
20260502190006 89 206 3.0 7.0 0.00 0.00 0.00 59 1019.1
20260502185910 89 253 2.0 7.0 0.00 0.00 0.00 59 1019.1
20260502185814 89 314 2.0 7.0 0.00 0.00 0.00 59 1019.0
20260502185738 89 145 2.0 7.0 0.00 0.00 0.00 59 1019.1
20260502185639 89 126 2.0 7.0 0.00 0.00 0.00 58 1019.1
20260502185504 89 127 3.0 7.0 0.00 0.00 0.00 59 1019.0
20260502185407 89 144 3.0 7.0 0.00 0.00 0.00 59 1019.1
20260502185311 89 148 2.0 7.0 0.00 0.00 0.00 59 1019.1
20260502185214 89 198 2.0 7.0 0.00 0.00 0.00 60 1019.1
20260502185116 89 144 3.0 7.0 0.00 0.00 0.00 59 1019.1
20260502185019 89 152 4.0 7.0 0.00 0.00 0.00 59 1019.2
20260502184942 89 207 3.0 7.0 0.00 0.00 0.00 59 1019.2
20260502184807 89 130 2.0 9.0 0.00 0.00 0.00 59 1019.2
20260502184710 89 132 2.0 9.0 0.00 0.00 0.00 59 1019.3
20260502184611 88 132 2.0 9.0 0.00 0.00 0.00 59 1019.3
20260502184533 88 192 2.0 9.0 0.00 0.00 0.00 60 1019.3
20260502184435 88 101 2.0 9.0 0.00 0.00 0.00 60 1019.3
20260502184316 88 187 2.0 9.0 0.00 0.00 0.00 60 1019.3
20260502184221 88 115 2.0 9.0 0.00 0.00 0.00 59 1019.4
20260502184108 88 115 4.0 9.0 0.00 0.00 0.00 60 1019.4
20260502184012 88 115 4.0 9.0 0.00 0.00 0.00 59 1019.5
20260502183915 88 205 3.0 9.0 0.00 0.00 0.00 59 1019.4
20260502183816 88 244 2.0 8.0 0.00 0.00 0.00 59 1019.4
20260502183718 87 295 3.0 8.0 0.00 0.00 0.00 60 1019.5
20260502183622 87 259 3.0 8.0 0.00 0.00 0.00 60 1019.5
20260502183505 87 304 4.0 8.0 0.00 0.00 0.00 60 1019.4
20260502183413 87 289 3.0 8.0 0.00 0.00 0.00 60 1019.5
20260502183317 87 236 3.0 8.0 0.00 0.00 0.00 60 1019.5
20260502183220 87 229 3.0 7.0 0.00 0.00 0.00 59 1019.5
20260502183104 87 221 2.0 9.0 0.00 0.00 0.00 60 1019.6
20260502183004 87 122 1.0 10.0 0.00 0.00 0.00 60 1019.6
20260502182810 87 205 4.0 10.0 0.00 0.00 0.00 60 1019.6
20260502182715 87 219 4.0 10.0 0.00 0.00 0.00 59 1019.7
20260502182619 87 207 3.0 10.0 0.00 0.00 0.00 59 1019.6
20260502182522 87 202 2.0 10.0 0.00 0.00 0.00 59 1019.8
20260502182404 87 145 3.0 10.0 0.00 0.00 0.00 58 1019.6
20260502182307 87 127 5.0 10.0 0.00 0.00 0.00 58 1019.8
20260502182210 87 121 6.0 10.0 0.00 0.00 0.00 58 1019.7
20260502182118 88 130 6.0 10.0 0.00 0.00 0.00 58 1019.7
20260502182022 88 139 6.0 10.0 0.00 0.00 0.00 57 1019.8
20260502181922 88 113 4.0 10.0 0.00 0.00 0.00 56 1019.8
20260502181824 88 83 4.0 8.0 0.00 0.00 0.00 56 1019.8
20260502181706 88 98 6.0 8.0 0.00 0.00 0.00 55 1019.7
20260502181608 89 112 5.0 8.0 0.00 0.00 0.00 55 1019.8
20260502181530 89 138 3.0 8.0 0.00 0.00 0.00 55 1019.7
20260502181431 89 132 1.0 3.0 0.00 0.00 0.00 56 1019.7
20260502181316 89 30 1.0 3.0 0.00 0.00 0.00 56 1019.6
20260502181219 89 30 1.0 3.0 0.00 0.00 0.00 55 1019.8
20260502181121 88 29 2.0 3.0 0.00 0.00 0.00 55 1019.7
20260502181023 88 30 2.0 3.0 0.00 0.00 0.00 55 1019.6
20260502180906 88 21 2.0 3.0 0.00 0.00 0.00 55 1019.6
20260502180809 88 18 2.0 3.0 0.00 0.00 0.00 55 1019.7
20260502180717 88 17 2.0 3.0 0.00 0.00 0.00 55 1019.8
20260502180641 88 16 2.0 3.0 0.00 0.00 0.00 55 1019.9
20260502180544 88 16 1.0 4.0 0.00 0.00 0.00 56 1019.9
20260502180406 88 17 1.0 5.0 0.00 0.00 0.00 56 1019.9
20260502180309 88 19 1.0 7.0 0.00 0.00 0.00 56 1019.9
20260502180213 88 19 1.0 7.0 0.00 0.00 0.00 56 1019.8
20260502180116 88 19 1.0 7.0 0.00 0.00 0.00 56 1020.0
20260502170518 86 112 3.0 9.0 0.00 0.00 0.00 59 1020.7
20260502170422 86 118 3.0 9.0 0.00 0.00 0.00 59 1020.6
20260502170305 86 95 4.0 10.0 0.00 0.00 0.00 59 1020.6
20260502170209 86 89 5.0 10.0 0.00 0.00 0.00 59 1020.7
20260502170115 86 65 5.0 10.0 0.00 0.00 0.00 59 1020.7
20260502164314 85 115 4.0 8.0 0.00 0.00 0.00 60 1020.8
20260502164217 85 90 4.0 8.0 0.00 0.00 0.00 59 1020.9
20260502164121 85 92 4.0 8.0 0.00 0.00 0.00 59 1020.9
20260502164008 85 84 4.0 8.0 0.00 0.00 0.00 60 1020.9
20260502163913 85 134 4.0 8.0 0.00 0.00 0.00 60 1020.9
20260502163815 85 89 3.0 7.0 0.00 0.00 0.00 61 1020.9
20260502163718 85 143 2.0 7.0 0.00 0.00 0.00 60 1020.9
20260502163620 85 143 3.0 7.0 0.00 0.00 0.00 61 1020.9
20260502163523 85 142 2.0 7.0 0.00 0.00 0.00 60 1020.9
20260502163411 85 128 3.0 7.0 0.00 0.00 0.00 60 1020.9
20260502163314 85 128 3.0 7.0 0.00 0.00 0.00 60 1020.9
20260502163217 85 133 2.0 7.0 0.00 0.00 0.00 61 1020.9
20260502163122 85 74 1.0 7.0 0.00 0.00 0.00 61 1020.9
20260502163006 84 48 2.0 9.0 0.00 0.00 0.00 61 1020.9
20260502162910 85 109 4.0 9.0 0.00 0.00 0.00 60 1021.0
20260502162837 85 109 5.0 9.0 0.00 0.00 0.00 60 1021.0
20260502162740 85 112 4.0 9.0 0.00 0.00 0.00 60 1021.0
20260502162622 85 121 2.0 9.0 0.00 0.00 0.00 60 1021.0
20260502162506 85 121 2.0 9.0 0.00 0.00 0.00 60 1020.9
20260502162409 85 123 3.0 9.0 0.00 0.00 0.00 59 1021.0
20260502162313 85 124 4.0 9.0 0.00 0.00 0.00 60 1021.0
20260502162217 85 77 3.0 9.0 0.00 0.00 0.00 59 1021.0
20260502162104 85 318 2.0 9.0 0.00 0.00 0.00 60 1021.0
20260502162008 85 104 2.0 7.0 0.00 0.00 0.00 60 1020.9
20260502161911 85 105 3.0 7.0 0.00 0.00 0.00 60 1021.0
20260502161814 85 46 4.0 7.0 0.00 0.00 0.00 60 1020.9
20260502161718 85 52 4.0 8.0 0.00 0.00 0.00 60 1020.9
20260502161621 85 79 3.0 8.0 0.00 0.00 0.00 61 1021.0
20260502161525 85 113 1.0 6.0 0.00 0.00 0.00 62 1021.0
20260502161411 85 115 1.0 5.0 0.00 0.00 0.00 62 1021.0
20260502161314 85 227 2.0 10.0 0.00 0.00 0.00 61 1021.1
20260502161235 85 231 3.0 10.0 0.00 0.00 0.00 61 1021.0
20260502161114 85 228 3.0 11.0 0.00 0.00 0.00 61 1021.0
20260502161016 85 232 3.0 11.0 0.00 0.00 0.00 60 1021.1
20260502160920 85 238 2.0 11.0 0.00 0.00 0.00 61 1021.1
20260502160822 85 64 2.0 11.0 0.00 0.00 0.00 61 1021.2
20260502160725 85 66 2.0 11.0 0.00 0.00 0.00 61 1021.1
20260502160612 85 102 3.0 11.0 0.00 0.00 0.00 61 1021.2
20260502160516 85 76 5.0 11.0 0.00 0.00 0.00 61 1021.1
20260502160418 85 42 6.0 13.0 0.00 0.00 0.00 61 1021.2
20260502160321 85 21 5.0 13.0 0.00 0.00 0.00 61 1021.2
20260502160225 85 62 4.0 13.0 0.00 0.00 0.00 62 1021.2
20260502160127 85 37 4.0 13.0 0.00 0.00 0.00 61 1021.1
20260502152308 82 60 1.0 7.0 0.00 0.00 0.00 64 1021.6
20260502152210 82 126 2.0 7.0 0.00 0.00 0.00 64 1021.6
20260502152016 82 127 2.0 7.0 0.00 0.00 0.00 63 1021.6
20260502151919 82 126 3.0 7.0 0.00 0.00 0.00 64 1021.7
20260502151821 82 126 4.0 8.0 0.00 0.00 0.00 64 1021.6
20260502151704 82 113 4.0 8.0 0.00 0.00 0.00 63 1021.5
20260502151605 82 94 3.0 8.0 0.00 0.00 0.00 64 1021.7
20260502151511 82 88 3.0 8.0 0.00 0.00 0.00 64 1021.6
20260502151415 82 80 2.0 8.0 0.00 0.00 0.00 64 1021.7
20260502151339 82 79 1.0 8.0 0.00 0.00 0.00 64 1021.7
20260502151242 82 121 2.0 8.0 0.00 0.00 0.00 64 1021.6
20260502151125 82 121 5.0 8.0 0.00 0.00 0.00 64 1021.7
20260502151008 82 122 5.0 8.0 0.00 0.00 0.00 64 1021.7
20260502150911 82 113 6.0 8.0 0.00 0.00 0.00 64 1021.7
20260502150813 82 101 5.0 8.0 0.00 0.00 0.00 64 1021.7
20260502150714 82 92 3.0 8.0 0.00 0.00 0.00 64 1021.6
20260502150641 82 38 2.0 6.0 0.00 0.00 0.00 65 1021.7
20260502150504 82 113 2.0 6.0 0.00 0.00 0.00 64 1021.7
20260502150404 82 113 3.0 6.0 0.00 0.00 0.00 64 1021.7
20260502150306 82 113 3.0 6.0 0.00 0.00 0.00 64 1021.8
20260502150208 82 113 3.0 6.0 0.00 0.00 0.00 65 1021.8
20260502150112 82 77 2.0 6.0 0.00 0.00 0.00 65 1021.8
20260502140116 80 92 1.0 6.0 0.00 0.00 0.00 68 1021.9
20260502130717 75 252 0.0 1.0 0.00 0.00 0.00 77 1021.8
20260502130619 75 252 0.0 1.0 0.00 0.00 0.00 78 1021.8
20260502130521 75 253 0.0 1.0 0.00 0.00 0.00 78 1021.8
20260502130428 75 252 0.0 0.0 0.00 0.00 0.00 78 1021.9
20260502130329 74 252 0.0 0.0 0.00 0.00 0.00 79 1021.8
20260502130231 74 252 0.0 0.0 0.00 0.00 0.00 79 1021.9
20260502130132 74 252 0.0 0.0 0.00 0.00 0.00 79 1021.8
20260502123706 72 252 0.0 2.0 0.00 0.00 0.00 80 1021.7
20260502123610 72 252 1.0 2.0 0.00 0.00 0.00 81 1021.6
20260502123512 72 252 1.0 2.0 0.00 0.00 0.00 81 1021.7
20260502123414 72 252 2.0 2.0 0.00 0.00 0.00 81 1021.5
20260502123336 72 253 1.0 2.0 0.00 0.00 0.00 81 1021.6
20260502123238 72 252 1.0 2.0 0.00 0.00 0.00 81 1021.6
20260502123120 72 252 1.0 2.0 0.00 0.00 0.00 81 1021.6
20260502123003 72 252 0.0 2.0 0.00 0.00 0.00 81 1021.5
20260502122906 72 252 1.0 2.0 0.00 0.00 0.00 81 1021.6
20260502122815 71 252 1.0 2.0 0.00 0.00 0.00 82 1021.6
20260502122717 71 252 1.0 2.0 0.00 0.00 0.00 82 1021.6
20260502122619 71 252 1.0 2.0 0.00 0.00 0.00 82 1021.7
20260502122522 71 252 1.0 2.0 0.00 0.00 0.00 82 1021.7
20260502122404 71 252 1.0 2.0 0.00 0.00 0.00 82 1021.7
20260502122307 71 252 1.0 2.0 0.00 0.00 0.00 82 1021.6
20260502122209 71 252 1.0 2.0 0.00 0.00 0.00 82 1021.6
20260502122117 71 252 1.0 2.0 0.00 0.00 0.00 82 1021.6
20260502122020 71 252 1.0 1.0 0.00 0.00 0.00 82 1021.5
20260502121923 71 252 1.0 1.0 0.00 0.00 0.00 82 1021.7
20260502121805 70 252 0.0 1.0 0.00 0.00 0.00 82 1021.6
20260502121710 70 252 0.0 1.0 0.00 0.00 0.00 82 1021.6
20260502121612 70 252 0.0 2.0 0.00 0.00 0.00 82 1021.6
20260502121514 70 252 0.0 2.0 0.00 0.00 0.00 82 1021.6
20260502121437 70 252 0.0 2.0 0.00 0.00 0.00 83 1021.6
20260502121343 70 252 0.0 2.0 0.00 0.00 0.00 83 1021.6
20260502121205 70 252 0.0 2.0 0.00 0.00 0.00 83 1021.5
20260502121109 70 252 0.0 2.0 0.00 0.00 0.00 83 1021.5
20260502121012 70 252 1.0 2.0 0.00 0.00 0.00 83 1021.5
20260502120915 70 252 1.0 2.0 0.00 0.00 0.00 83 1021.4
20260502120818 70 252 1.0 2.0 0.00 0.00 0.00 83 1021.4
20260502120706 70 252 1.0 2.0 0.00 0.00 0.00 83 1021.5
20260502120609 70 252 1.0 2.0 0.00 0.00 0.00 83 1021.3
20260502120512 70 252 1.0 2.0 0.00 0.00 0.00 83 1021.5
20260502120416 70 252 1.0 2.0 0.00 0.00 0.00 83 1021.4
20260502120318 70 252 1.0 2.0 0.00 0.00 0.00 83 1021.5
20260502120222 70 252 1.0 2.0 0.00 0.00 0.00 83 1021.5
20260502120144 70 252 0.0 1.0 0.00 0.00 0.00 83 1021.4
20260502115903 70 252 0.0 0.0 0.00 0.00 0.00 83 1021.4
20260502115806 70 252 0.0 0.0 0.00 0.00 0.00 83 1021.5
20260502115708 70 252 0.0 0.0 0.00 0.00 0.00 83 1021.4
20260502115610 69 252 0.0 2.0 0.00 0.00 0.00 83 1021.4
20260502115533 69 252 0.0 2.0 0.00 0.00 0.00 83 1021.4
20260502115414 69 252 0.0 2.0 0.00 0.00 0.00 83 1021.4
20260502115318 69 252 0.0 2.0 0.00 0.00 0.00 83 1021.3
20260502115223 69 252 0.0 2.0 0.00 0.00 0.00 83 1021.3
20260502115107 69 252 0.0 2.0 0.00 0.00 0.00 83 1021.3
20260502115010 69 252 0.0 2.0 0.00 0.00 0.00 83 1021.3
20260502114913 69 252 0.0 2.0 0.00 0.00 0.00 83 1021.3
20260502114816 69 252 0.0 2.0 0.00 0.00 0.00 83 1021.2
20260502114717 69 252 0.0 2.0 0.00 0.00 0.00 83 1021.2
20260502114604 69 252 0.0 2.0 0.00 0.00 0.00 83 1021.2
20260502114508 69 252 0.0 2.0 0.00 0.00 0.00 83 1021.3
20260502114412 69 252 0.0 2.0 0.00 0.00 0.00 83 1021.3
20260502114316 69 252 0.0 2.0 0.00 0.00 0.00 83 1021.3
20260502114219 69 252 0.0 2.0 0.00 0.00 0.00 83 1021.3
20260502114103 69 252 1.0 2.0 0.00 0.00 0.00 83 1021.2
20260502114026 69 252 0.0 2.0 0.00 0.00 0.00 83 1021.2
20260502113932 69 252 0.0 2.0 0.00 0.00 0.00 83 1021.2
20260502113835 69 252 0.0 2.0 0.00 0.00 0.00 83 1021.2
20260502113716 69 252 1.0 2.0 0.00 0.00 0.00 83 1021.2
20260502113619 69 252 1.0 2.0 0.00 0.00 0.00 83 1021.2
20260502113521 69 252 1.0 2.0 0.00 0.00 0.00 83 1021.2
20260502113405 69 252 1.0 2.0 0.00 0.00 0.00 83 1021.2
20260502113308 69 252 1.0 2.0 0.00 0.00 0.00 83 1021.2
20260502113215 69 252 1.0 2.0 0.00 0.00 0.00 83 1021.3
20260502113118 69 252 1.0 2.0 0.00 0.00 0.00 83 1021.3
20260502113021 69 252 1.0 2.0 0.00 0.00 0.00 83 1021.3
20260502112923 69 252 1.0 2.0 0.00 0.00 0.00 83 1021.3
20260502112806 69 252 1.0 2.0 0.00 0.00 0.00 83 1021.3
20260502112709 70 252 1.0 2.0 0.00 0.00 0.00 83 1021.2
20260502112616 69 252 1.0 2.0 0.00 0.00 0.00 82 1021.3
20260502112518 69 252 1.0 2.0 0.00 0.00 0.00 82 1021.2
20260502112420 69 252 1.0 2.0 0.00 0.00 0.00 82 1021.3
20260502112324 70 252 2.0 2.0 0.00 0.00 0.00 82 1021.2
20260502112204 70 252 2.0 2.0 0.00 0.00 0.00 82 1021.3
20260502112105 70 252 1.0 2.0 0.00 0.00 0.00 82 1021.2
20260502112008 70 252 1.0 2.0 0.00 0.00 0.00 82 1021.2
20260502111934 70 252 1.0 2.0 0.00 0.00 0.00 82 1021.2
20260502111838 70 252 1.0 2.0 0.00 0.00 0.00 82 1021.2
20260502111719 70 252 1.0 2.0 0.00 0.00 0.00 82 1021.2
20260502111621 70 252 1.0 2.0 0.00 0.00 0.00 82 1021.3
20260502111543 70 252 1.0 2.0 0.00 0.00 0.00 82 1021.2
20260502111425 70 252 1.0 2.0 0.00 0.00 0.00 82 1021.2
20260502111326 70 252 1.0 2.0 0.00 0.00 0.00 82 1021.2
20260502111209 70 252 1.0 2.0 0.00 0.00 0.00 82 1021.2
20260502111115 70 252 1.0 2.0 0.00 0.00 0.00 82 1021.2
20260502111016 70 252 1.0 2.0 0.00 0.00 0.00 82 1021.1
20260502110917 70 252 1.0 2.0 0.00 0.00 0.00 82 1021.2
20260502110820 70 252 1.0 3.0 0.00 0.00 0.00 82 1021.0
20260502110722 70 252 1.0 3.0 0.00 0.00 0.00 82 1021.1
20260502110605 70 252 1.0 3.0 0.00 0.00 0.00 82 1021.0
20260502110509 70 252 1.0 3.0 0.00 0.00 0.00 82 1021.0
20260502110433 70 252 1.0 3.0 0.00 0.00 0.00 82 1021.1
20260502110319 70 252 1.0 3.0 0.00 0.00 0.00 82 1021.0
20260502110221 70 252 1.0 3.0 0.00 0.00 0.00 82 1020.9
20260502110122 70 252 2.0 3.0 0.00 0.00 0.00 82 1021.0
20260502110023 70 252 2.0 3.0 0.00 0.00 0.00 82 1021.0
20260502105904 70 252 1.0 2.0 0.00 0.00 0.00 82 1021.0
20260502105806 70 251 1.0 2.0 0.00 0.00 0.00 82 1021.1
20260502105709 70 251 1.0 2.0 0.00 0.00 0.00 82 1020.9
20260502105613 70 251 1.0 2.0 0.00 0.00 0.00 82 1020.9
20260502105519 70 251 0.0 3.0 0.00 0.00 0.00 82 1020.9
20260502105423 70 251 0.0 3.0 0.00 0.00 0.00 82 1021.0
20260502105306 70 251 1.0 3.0 0.00 0.00 0.00 82 1021.0
20260502105207 70 251 1.0 3.0 0.00 0.00 0.00 82 1021.0
20260502105109 70 251 1.0 3.0 0.00 0.00 0.00 82 1021.1
20260502105032 70 251 1.0 3.0 0.00 0.00 0.00 82 1021.0
20260502104934 70 251 1.0 3.0 0.00 0.00 0.00 82 1021.0
20260502104820 70 251 2.0 3.0 0.00 0.00 0.00 82 1021.0
20260502104721 70 251 2.0 3.0 0.00 0.00 0.00 82 1021.0
20260502104622 70 251 2.0 2.0 0.00 0.00 0.00 82 1020.9
20260502104524 70 251 1.0 2.0 0.00 0.00 0.00 82 1020.9
20260502104426 70 251 1.0 2.0 0.00 0.00 0.00 82 1021.0
20260502104308 70 250 1.0 2.0 0.00 0.00 0.00 82 1020.9
20260502104211 70 250 1.0 2.0 0.00 0.00 0.00 82 1020.9
20260502104118 70 250 2.0 2.0 0.00 0.00 0.00 82 1020.8
20260502104021 70 250 2.0 2.0 0.00 0.00 0.00 82 1020.8
20260502103904 70 251 2.0 2.0 0.00 0.00 0.00 82 1020.9
20260502103806 70 251 2.0 2.0 0.00 0.00 0.00 82 1020.8
20260502103709 70 251 1.0 2.0 0.00 0.00 0.00 82 1020.8
20260502103613 70 251 1.0 2.0 0.00 0.00 0.00 82 1020.8
20260502103522 70 251 2.0 2.0 0.00 0.00 0.00 82 1020.9
20260502103405 70 251 2.0 2.0 0.00 0.00 0.00 82 1020.9
20260502103308 70 251 2.0 2.0 0.00 0.00 0.00 82 1020.8
20260502103210 70 251 2.0 2.0 0.00 0.00 0.00 82 1020.8
20260502103113 70 251 1.0 2.0 0.00 0.00 0.00 82 1020.7
20260502103016 70 251 1.0 2.0 0.00 0.00 0.00 82 1020.7
20260502102923 71 251 1.0 2.0 0.00 0.00 0.00 82 1020.7
20260502102805 71 251 1.0 2.0 0.00 0.00 0.00 82 1020.7
20260502102707 71 251 1.0 2.0 0.00 0.00 0.00 82 1020.7
20260502102611 71 251 1.0 2.0 0.00 0.00 0.00 82 1020.7
20260502102515 71 250 1.0 2.0 0.00 0.00 0.00 82 1020.7
20260502102419 71 251 2.0 2.0 0.00 0.00 0.00 82 1020.7
20260502102306 71 250 2.0 2.0 0.00 0.00 0.00 82 1020.7
20260502102207 71 251 2.0 2.0 0.00 0.00 0.00 82 1020.7
20260502102111 71 251 1.0 2.0 0.00 0.00 0.00 82 1020.7
20260502102014 71 251 1.0 2.0 0.00 0.00 0.00 82 1020.7
20260502101917 71 250 1.0 2.0 0.00 0.00 0.00 82 1020.7
20260502101820 71 251 1.0 2.0 0.00 0.00 0.00 82 1020.7
20260502101727 71 250 0.0 2.0 0.00 0.00 0.00 82 1020.6
20260502101628 71 250 0.0 2.0 0.00 0.00 0.00 82 1020.6
20260502101510 71 251 0.0 2.0 0.00 0.00 0.00 82 1020.5
20260502101412 71 251 0.0 2.0 0.00 0.00 0.00 82 1020.5
20260502101314 71 251 0.0 2.0 0.00 0.00 0.00 82 1020.6
20260502101216 71 251 0.0 2.0 0.00 0.00 0.00 82 1020.7
20260502101118 71 251 0.0 2.0 0.00 0.00 0.00 82 1020.7
20260502101021 71 251 0.0 2.0 0.00 0.00 0.00 82 1020.7
20260502100944 71 251 1.0 2.0 0.00 0.00 0.00 81 1020.5
20260502100810 71 251 0.0 2.0 0.00 0.00 0.00 81 1020.7
20260502100733 71 251 0.0 2.0 0.00 0.00 0.00 81 1020.7
20260502100636 71 251 0.0 2.0 0.00 0.00 0.00 81 1020.6
20260502100517 71 250 0.0 2.0 0.00 0.00 0.00 81 1020.6
20260502100420 71 251 0.0 2.0 0.00 0.00 0.00 81 1020.7
20260502100344 71 251 1.0 2.0 0.00 0.00 0.00 81 1020.6
20260502100226 71 251 1.0 2.0 0.00 0.00 0.00 81 1020.6
20260502100108 71 251 1.0 2.0 0.00 0.00 0.00 81 1020.5
20260502091514 71 251 0.0 1.0 0.00 0.00 0.00 81 1020.2
20260502091417 71 251 0.0 1.0 0.00 0.00 0.00 81 1020.3
20260502091320 71 251 0.0 1.0 0.00 0.00 0.00 81 1020.3
20260502091208 71 251 0.0 1.0 0.00 0.00 0.00 81 1020.3
20260502091111 71 251 0.0 1.0 0.00 0.00 0.00 81 1020.3
20260502091012 71 251 0.0 1.0 0.00 0.00 0.00 81 1020.3
20260502090915 71 251 0.0 1.0 0.00 0.00 0.00 81 1020.3
20260502090819 71 251 0.0 1.0 0.00 0.00 0.00 81 1020.3
20260502090722 71 251 0.0 2.0 0.00 0.00 0.00 81 1020.2
20260502090609 71 251 0.0 2.0 0.00 0.00 0.00 81 1020.3
20260502090513 71 251 1.0 2.0 0.00 0.00 0.00 81 1020.2
20260502090415 71 251 0.0 2.0 0.00 0.00 0.00 81 1020.3
20260502090319 71 251 0.0 2.0 0.00 0.00 0.00 81 1020.3
20260502090222 71 251 0.0 2.0 0.00 0.00 0.00 81 1020.2
20260502090105 71 251 1.0 2.0 0.00 0.00 0.00 81 1020.3
20260502071535 72 251 0.0 1.0 0.00 0.00 0.00 78 1020.7
20260502071416 72 251 0.0 2.0 0.00 0.00 0.00 78 1020.7
20260502071319 72 251 0.0 2.0 0.00 0.00 0.00 78 1020.8
20260502071206 72 251 0.0 2.0 0.00 0.00 0.00 78 1020.7
20260502071108 72 251 0.0 3.0 0.00 0.00 0.00 78 1020.8
20260502071011 72 251 1.0 3.0 0.00 0.00 0.00 78 1020.8
20260502070914 72 251 0.0 3.0 0.00 0.00 0.00 77 1020.8
20260502070814 72 251 0.0 3.0 0.00 0.00 0.00 77 1020.8
20260502070717 72 251 1.0 3.0 0.00 0.00 0.00 78 1020.8
20260502070639 72 251 1.0 3.0 0.00 0.00 0.00 78 1020.8
20260502070524 72 251 1.0 3.0 0.00 0.00 0.00 78 1020.8
20260502070426 72 251 2.0 3.0 0.00 0.00 0.00 78 1020.8
20260502070308 72 251 2.0 3.0 0.00 0.00 0.00 78 1020.8
20260502070211 73 251 2.0 3.0 0.00 0.00 0.00 78 1020.8
20260502070113 73 251 2.0 2.0 0.00 0.00 0.00 78 1020.9
20260502070017 73 251 1.0 2.0 0.00 0.00 0.00 78 1021.1
20260502065918 73 251 2.0 2.0 0.00 0.00 0.00 78 1020.9
20260502065805 73 251 1.0 2.0 0.00 0.00 0.00 78 1020.8
20260502065708 73 250 1.0 2.0 0.00 0.00 0.00 79 1020.8
20260502065609 73 250 0.0 2.0 0.00 0.00 0.00 79 1020.8
20260502065512 73 250 0.0 2.0 0.00 0.00 0.00 79 1020.8
20260502065415 73 250 0.0 2.0 0.00 0.00 0.00 79 1020.9
20260502065316 73 250 1.0 2.0 0.00 0.00 0.00 79 1020.8
20260502065215 73 250 1.0 2.0 0.00 0.00 0.00 79 1020.8
20260502065121 73 250 1.0 1.0 0.00 0.00 0.00 79 1020.8
20260502065004 73 250 1.0 1.0 0.00 0.00 0.00 79 1020.9
20260502064906 73 250 0.0 1.0 0.00 0.00 0.00 79 1020.8
20260502064809 73 250 0.0 0.0 0.00 0.00 0.00 79 1020.7
20260502064711 73 250 0.0 0.0 0.00 0.00 0.00 79 1020.9
20260502064612 73 250 0.0 0.0 0.00 0.00 0.00 79 1020.9
20260502064519 73 250 0.0 0.0 0.00 0.00 0.00 79 1020.9
20260502064443 73 250 0.0 1.0 0.00 0.00 0.00 79 1020.8
20260502064344 73 250 0.0 1.0 0.00 0.00 0.00 79 1020.8
20260502064205 73 250 0.0 3.0 0.00 0.00 0.00 79 1020.8
20260502064106 73 250 0.0 3.0 0.00 0.00 0.00 79 1020.9
20260502064008 73 250 0.0 3.0 0.00 0.00 0.00 79 1020.8
20260502063909 73 250 0.0 3.0 0.00 0.00 0.00 79 1020.8
20260502063812 73 250 0.0 3.0 0.00 0.00 0.00 79 1020.8
20260502063714 73 250 0.0 3.0 0.00 0.00 0.00 79 1020.8
20260502063621 73 250 0.0 3.0 0.00 0.00 0.00 79 1020.9
20260502063504 73 250 1.0 3.0 0.00 0.00 0.00 79 1020.8
20260502063407 73 250 1.0 3.0 0.00 0.00 0.00 79 1020.9
20260502063311 73 250 1.0 2.0 0.00 0.00 0.00 79 1020.8
20260502063213 73 250 1.0 2.0 0.00 0.00 0.00 79 1020.9
20260502063116 73 250 1.0 2.0 0.00 0.00 0.00 79 1020.9
20260502063023 73 250 1.0 2.0 0.00 0.00 0.00 79 1020.8
20260502062925 73 250 1.0 2.0 0.00 0.00 0.00 79 1020.8
20260502062807 73 250 1.0 2.0 0.00 0.00 0.00 78 1020.9
20260502062709 73 250 0.0 2.0 0.00 0.00 0.00 78 1020.8
20260502062631 73 250 0.0 4.0 0.00 0.00 0.00 78 1020.9
20260502062533 73 250 0.0 4.0 0.00 0.00 0.00 78 1020.8
20260502062416 73 250 1.0 4.0 0.00 0.00 0.00 78 1020.9
20260502062322 73 250 0.0 4.0 0.00 0.00 0.00 78 1020.8
20260502062205 73 250 1.0 4.0 0.00 0.00 0.00 78 1020.9
20260502062109 73 250 1.0 4.0 0.00 0.00 0.00 78 1020.8
20260502062010 73 250 1.0 4.0 0.00 0.00 0.00 78 1020.8
20260502061913 73 250 1.0 4.0 0.00 0.00 0.00 78 1020.8
20260502061817 73 250 2.0 4.0 0.00 0.00 0.00 78 1020.8
20260502061507 73 282 1.0 4.0 0.00 0.00 0.00 78 1020.9
20260502061333 73 282 2.0 4.0 0.00 0.00 0.00 78 1020.9
20260502061215 73 282 2.0 4.0 0.00 0.00 0.00 78 1020.9
20260502061118 73 286 2.0 4.0 0.00 0.00 0.00 78 1020.9
20260502061020 73 281 2.0 4.0 0.00 0.00 0.00 78 1020.9
20260502060923 73 280 2.0 4.0 0.00 0.00 0.00 77 1020.9
20260502060809 73 295 2.0 4.0 0.00 0.00 0.00 77 1020.9
20260502060712 73 295 2.0 4.0 0.00 0.00 0.00 77 1020.9
20260502060614 73 300 2.0 4.0 0.00 0.00 0.00 77 1020.9
20260502060516 73 300 2.0 4.0 0.00 0.00 0.00 77 1020.9
20260502060420 74 300 2.0 4.0 0.00 0.00 0.00 77 1020.9
20260502060323 73 302 3.0 4.0 0.00 0.00 0.00 77 1020.8
20260502060210 73 286 2.0 4.0 0.00 0.00 0.00 77 1021.0
20260502060114 74 277 2.0 5.0 0.00 0.00 0.00 77 1020.9
20260502060017 74 277 2.0 5.0 0.00 0.00 0.00 77 1021.0
20260502055913 74 277 3.0 5.0 0.00 0.00 0.00 77 1021.0
20260502055816 74 276 3.0 5.0 0.00 0.00 0.00 77 1021.0
20260502055718 73 285 2.0 5.0 0.00 0.00 0.00 77 1021.1
20260502055619 74 288 1.0 5.0 0.00 0.00 0.00 77 1021.0
20260502055507 74 278 1.0 5.0 0.00 0.00 0.00 77 1021.0
20260502055409 74 278 2.0 5.0 0.00 0.00 0.00 77 1021.0
20260502055313 74 278 3.0 5.0 0.00 0.00 0.00 77 1021.0
20260502055216 74 278 4.0 5.0 0.00 0.00 0.00 77 1021.1
20260502055140 74 273 3.0 6.0 0.00 0.00 0.00 77 1021.0
20260502055043 74 294 3.0 4.0 0.00 0.00 0.00 77 1021.0
20260502054904 74 286 3.0 4.0 0.00 0.00 0.00 77 1021.0
20260502054810 74 287 3.0 4.0 0.00 0.00 0.00 77 1021.1
20260502054714 74 281 3.0 4.0 0.00 0.00 0.00 77 1021.1
20260502054617 74 281 3.0 4.0 0.00 0.00 0.00 77 1021.2
20260502054521 74 280 3.0 4.0 0.00 0.00 0.00 77 1021.2
20260502054404 74 284 2.0 4.0 0.00 0.00 0.00 77 1021.2
20260502054307 74 282 2.0 4.0 0.00 0.00 0.00 77 1021.2
20260502054210 74 281 2.0 4.0 0.00 0.00 0.00 77 1021.1
20260502054118 74 279 2.0 4.0 0.00 0.00 0.00 77 1021.2
20260502054022 74 279 3.0 4.0 0.00 0.00 0.00 76 1021.2
20260502053905 74 279 3.0 4.0 0.00 0.00 0.00 76 1021.2
20260502053809 74 279 2.0 3.0 0.00 0.00 0.00 76 1021.2
20260502053712 74 278 2.0 4.0 0.00 0.00 0.00 76 1021.1
20260502053616 74 279 2.0 4.0 0.00 0.00 0.00 76 1021.2
20260502053504 74 242 2.0 4.0 0.00 0.00 0.00 76 1021.2
20260502053406 74 242 1.0 4.0 0.00 0.00 0.00 76 1021.2
20260502053307 75 242 0.0 4.0 0.00 0.00 0.00 76 1021.2
20260502053209 74 242 0.0 4.0 0.00 0.00 0.00 76 1021.2
20260502053111 75 242 1.0 4.0 0.00 0.00 0.00 76 1021.2
20260502053034 75 242 2.0 4.0 0.00 0.00 0.00 76 1021.2
20260502052936 75 242 2.0 4.0 0.00 0.00 0.00 76 1021.2
20260502052817 75 229 2.0 3.0 0.00 0.00 0.00 76 1021.3
20260502052704 75 229 2.0 3.0 0.00 0.00 0.00 76 1021.2
20260502052608 75 229 2.0 3.0 0.00 0.00 0.00 76 1021.4
20260502052510 74 224 2.0 3.0 0.00 0.00 0.00 76 1021.4
20260502052414 75 13 1.0 3.0 0.00 0.00 0.00 76 1021.3
20260502052318 75 13 1.0 3.0 0.00 0.00 0.00 76 1021.3
20260502052205 75 14 0.0 3.0 0.00 0.00 0.00 76 1021.3
20260502052106 75 14 0.0 3.0 0.00 0.00 0.00 76 1021.3
20260502052008 75 14 0.0 3.0 0.00 0.00 0.00 76 1021.3
20260502051909 75 13 0.0 3.0 0.00 0.00 0.00 76 1021.3
20260502051833 75 14 1.0 3.0 0.00 0.00 0.00 76 1021.4
20260502051734 75 13 2.0 3.0 0.00 0.00 0.00 76 1021.2
20260502051614 75 257 2.0 3.0 0.00 0.00 0.00 76 1021.3
20260502051516 75 248 1.0 3.0 0.00 0.00 0.00 76 1021.3
20260502051423 75 248 1.0 2.0 0.00 0.00 0.00 76 1021.3
20260502051306 75 248 1.0 2.0 0.00 0.00 0.00 76 1021.4
20260502051208 75 248 0.0 2.0 0.00 0.00 0.00 76 1021.2
20260502051109 75 248 0.0 2.0 0.00 0.00 0.00 76 1021.2
20260502051012 75 248 0.0 3.0 0.00 0.00 0.00 76 1021.3
20260502050914 75 248 0.0 3.0 0.00 0.00 0.00 76 1021.3
20260502050817 75 248 0.0 3.0 0.00 0.00 0.00 76 1021.3
20260502050704 75 248 0.0 3.0 0.00 0.00 0.00 76 1021.3
20260502050608 75 248 0.0 3.0 0.00 0.00 0.00 76 1021.3
20260502050512 75 248 0.0 3.0 0.00 0.00 0.00 76 1021.3
20260502050416 75 248 1.0 3.0 0.00 0.00 0.00 76 1021.3
20260502050340 75 248 1.0 3.0 0.00 0.00 0.00 76 1021.3
20260502050242 75 248 2.0 3.0 0.00 0.00 0.00 76 1021.3
20260502050123 75 248 2.0 3.0 0.00 0.00 0.00 75 1021.4
20260502050005 75 259 1.0 2.0 0.00 0.00 0.00 75 1021.4
20260502045906 75 259 1.0 2.0 0.00 0.00 0.00 75 1021.4
20260502045808 75 259 1.0 2.0 0.00 0.00 0.00 75 1021.4
20260502045710 75 259 1.0 2.0 0.00 0.00 0.00 75 1021.4
20260502045613 75 259 0.0 2.0 0.00 0.00 0.00 75 1021.3
20260502045516 75 259 0.0 0.0 0.00 0.00 0.00 75 1021.4
20260502045423 75 259 0.0 0.0 0.00 0.00 0.00 75 1021.3
20260502045306 75 259 0.0 3.0 0.00 0.00 0.00 75 1021.3
20260502045227 75 259 0.0 3.0 0.00 0.00 0.00 75 1021.3
20260502045129 75 259 0.0 3.0 0.00 0.00 0.00 74 1021.3
20260502045030 75 259 0.0 3.0 0.00 0.00 0.00 74 1021.3
20260502044913 75 259 0.0 3.0 0.00 0.00 0.00 75 1021.2
20260502044815 75 259 0.0 3.0 0.00 0.00 0.00 75 1021.2
20260502044717 75 259 0.0 3.0 0.00 0.00 0.00 75 1021.2
20260502044622 75 259 1.0 3.0 0.00 0.00 0.00 75 1021.2
20260502044523 75 259 1.0 3.0 0.00 0.00 0.00 75 1021.2
20260502044426 75 259 1.0 3.0 0.00 0.00 0.00 75 1021.3
20260502044308 75 259 1.0 3.0 0.00 0.00 0.00 75 1021.3
20260502044209 75 260 1.0 3.0 0.00 0.00 0.00 75 1021.3
20260502044130 75 259 1.0 3.0 0.00 0.00 0.00 75 1021.3
20260502044009 75 259 1.0 3.0 0.00 0.00 0.00 75 1021.3
20260502043935 75 259 1.0 3.0 0.00 0.00 0.00 75 1021.3
20260502043816 75 259 2.0 3.0 0.00 0.00 0.00 75 1021.3
20260502043718 75 259 2.0 3.0 0.00 0.00 0.00 75 1021.3
20260502043623 75 233 2.0 3.0 0.00 0.00 0.00 75 1021.4
20260502043505 75 233 1.0 3.0 0.00 0.00 0.00 75 1021.3
20260502043428 75 233 1.0 3.0 0.00 0.00 0.00 75 1021.3
20260502043330 75 233 1.0 3.0 0.00 0.00 0.00 75 1021.3
20260502043215 75 233 2.0 3.0 0.00 0.00 0.00 75 1021.4
20260502043115 75 233 2.0 6.0 0.00 0.00 0.00 76 1021.3
20260502043015 75 234 1.0 6.0 0.00 0.00 0.00 76 1021.3
20260502042918 75 233 2.0 6.0 0.00 0.00 0.00 76 1021.3
20260502042820 75 234 2.0 6.0 0.00 0.00 0.00 76 1021.3
20260502042723 75 234 1.0 6.0 0.00 0.00 0.00 76 1021.2
20260502042623 75 274 2.0 6.0 0.00 0.00 0.00 76 1021.3
20260502042509 75 275 2.0 6.0 0.00 0.00 0.00 76 1021.3
20260502042411 75 277 2.0 6.0 0.00 0.00 0.00 76 1021.3
20260502042314 75 279 3.0 9.0 0.00 0.00 0.00 77 1021.4
20260502042216 75 226 2.0 9.0 0.00 0.00 0.00 77 1021.4
20260502042117 75 275 2.0 9.0 0.00 0.00 0.00 77 1021.4
20260502042041 75 293 2.0 9.0 0.00 0.00 0.00 77 1021.4
20260502041942 75 270 2.0 9.0 0.00 0.00 0.00 78 1021.4
20260502041808 75 262 2.0 9.0 0.00 0.00 0.00 78 1021.4
20260502041709 75 254 3.0 9.0 0.00 0.00 0.00 78 1021.4
20260502041612 75 255 4.0 9.0 0.00 0.00 0.00 78 1021.5
20260502041514 75 252 3.0 9.0 0.00 0.00 0.00 78 1021.4
20260502041417 75 262 2.0 5.0 0.00 0.00 0.00 78 1021.4
20260502041318 75 250 2.0 5.0 0.00 0.00 0.00 78 1021.5
20260502041220 75 250 3.0 5.0 0.00 0.00 0.00 78 1021.4
20260502041127 75 235 3.0 5.0 0.00 0.00 0.00 79 1021.6
20260502041007 75 230 3.0 5.0 0.00 0.00 0.00 79 1021.5
20260502040909 75 239 3.0 6.0 0.00 0.00 0.00 79 1021.4
20260502040809 75 237 3.0 6.0 0.00 0.00 0.00 79 1021.5
20260502040711 75 294 3.0 6.0 0.00 0.00 0.00 79 1021.4
20260502040615 75 282 2.0 6.0 0.00 0.00 0.00 79 1021.6
20260502040517 75 259 2.0 6.0 0.00 0.00 0.00 79 1021.6
20260502040444 75 259 2.0 6.0 0.00 0.00 0.00 79 1021.6
20260502040345 75 259 2.0 6.0 0.00 0.00 0.00 79 1021.6
20260502040207 75 217 3.0 7.0 0.00 0.00 0.00 79 1021.6
20260502040108 75 259 3.0 7.0 0.00 0.00 0.00 79 1021.6
20260502040009 75 254 2.0 7.0 0.00 0.00 0.00 79 1021.7
20260502035910 75 271 2.0 7.0 0.00 0.00 0.00 79 1021.6
20260502035811 75 271 3.0 7.0 0.00 0.00 0.00 79 1021.7
20260502035715 75 234 3.0 7.0 0.00 0.00 0.00 79 1021.8
20260502035636 75 261 3.0 7.0 0.00 0.00 0.00 79 1021.7
20260502035522 75 279 4.0 7.0 0.00 0.00 0.00 79 1021.6
20260502035424 75 253 3.0 7.0 0.00 0.00 0.00 79 1021.7
20260502035306 75 265 3.0 5.0 0.00 0.00 0.00 79 1021.7
20260502035207 75 286 3.0 5.0 0.00 0.00 0.00 79 1021.7
20260502035108 75 285 3.0 5.0 0.00 0.00 0.00 79 1021.6
20260502035030 75 232 2.0 5.0 0.00 0.00 0.00 79 1021.6
20260502034931 75 228 1.0 6.0 0.00 0.00 0.00 79 1021.6
20260502034816 75 273 1.0 7.0 0.00 0.00 0.00 79 1021.8
20260502034716 75 268 2.0 7.0 0.00 0.00 0.00 79 1021.7
20260502034617 75 268 3.0 7.0 0.00 0.00 0.00 79 1021.8
20260502034519 75 261 2.0 7.0 0.00 0.00 0.00 79 1021.8
20260502034421 75 262 2.0 7.0 0.00 0.00 0.00 79 1021.7
20260502034323 75 279 2.0 7.0 0.00 0.00 0.00 79 1021.6
20260502034205 75 278 3.0 7.0 0.00 0.00 0.00 79 1021.7
20260502034110 75 252 2.0 7.0 0.00 0.00 0.00 79 1021.7
20260502034012 75 250 2.0 7.0 0.00 0.00 0.00 79 1021.7
20260502033916 75 256 2.0 4.0 0.00 0.00 0.00 79 1021.8
20260502033817 75 257 2.0 4.0 0.00 0.00 0.00 79 1021.8
20260502033738 75 251 2.0 4.0 0.00 0.00 0.00 79 1021.8
20260502033622 75 250 2.0 4.0 0.00 0.00 0.00 79 1021.8
20260502033522 75 250 1.0 6.0 0.00 0.00 0.00 79 1021.7
20260502033407 75 254 1.0 6.0 0.00 0.00 0.00 79 1021.8
20260502033309 75 255 1.0 6.0 0.00 0.00 0.00 79 1021.8
20260502033210 75 234 2.0 6.0 0.00 0.00 0.00 79 1021.7
20260502033132 75 235 2.0 6.0 0.00 0.00 0.00 79 1021.8
20260502033035 75 235 1.0 6.0 0.00 0.00 0.00 79 1021.7
20260502032936 75 225 1.0 7.0 0.00 0.00 0.00 79 1021.8
20260502032839 75 226 2.0 7.0 0.00 0.00 0.00 79 1021.8
20260502032740 75 267 2.0 7.0 0.00 0.00 0.00 79 1021.7
20260502032641 75 269 2.0 7.0 0.00 0.00 0.00 79 1021.8
20260502032542 75 245 2.0 7.0 0.00 0.00 0.00 79 1021.6
20260502032408 75 253 2.0 7.0 0.00 0.00 0.00 79 1021.6
20260502032311 75 258 3.0 8.0 0.00 0.00 0.00 79 1021.6
20260502032213 75 277 3.0 8.0 0.00 0.00 0.00 79 1021.7
20260502032113 75 275 2.0 8.0 0.00 0.00 0.00 79 1021.6
20260502032017 75 227 2.0 8.0 0.00 0.00 0.00 79 1021.5
20260502031938 75 234 2.0 8.0 0.00 0.00 0.00 79 1021.4
20260502031838 75 234 3.0 8.0 0.00 0.00 0.00 79 1021.4
20260502031740 75 251 2.0 8.0 0.00 0.00 0.00 79 1021.6
20260502031624 75 271 3.0 8.0 0.00 0.00 0.00 78 1021.5
20260502031524 75 269 4.0 8.0 0.00 0.00 0.00 79 1021.5
20260502031405 75 275 3.0 8.0 0.00 0.00 0.00 78 1021.4
20260502031306 75 267 2.0 4.0 0.00 0.00 0.00 78 1021.4
20260502031209 75 271 2.0 5.0 0.00 0.00 0.00 78 1021.5
20260502031110 75 253 2.0 5.0 0.00 0.00 0.00 78 1021.4
20260502031011 75 253 2.0 5.0 0.00 0.00 0.00 78 1021.5
20260502030919 75 259 2.0 5.0 0.00 0.00 0.00 78 1021.4
20260502030842 75 256 2.0 5.0 0.00 0.00 0.00 78 1021.4
20260502030722 75 263 1.0 5.0 0.00 0.00 0.00 78 1021.3
20260502030644 75 263 2.0 5.0 0.00 0.00 0.00 78 1021.3
20260502030504 75 263 2.0 5.0 0.00 0.00 0.00 78 1021.3
20260502030407 75 280 3.0 5.0 0.00 0.00 0.00 78 1021.3
20260502030310 75 218 3.0 6.0 0.00 0.00 0.00 78 1021.3
20260502030211 75 266 3.0 6.0 0.00 0.00 0.00 78 1021.2
20260502030115 75 262 3.0 6.0 0.00 0.00 0.00 78 1021.2
20260502030017 75 265 2.0 6.0 0.00 0.00 0.00 78 1021.2
20260502025915 75 236 2.0 6.0 0.00 0.00 0.00 78 1021.2
20260502025818 75 240 2.0 6.0 0.00 0.00 0.00 78 1021.2
20260502025720 75 266 2.0 6.0 0.00 0.00 0.00 78 1021.2
20260502025622 75 266 2.0 8.0 0.00 0.00 0.00 78 1021.2
20260502025524 75 266 2.0 8.0 0.00 0.00 0.00 78 1021.2
20260502025411 75 271 2.0 8.0 0.00 0.00 0.00 78 1021.2
20260502025334 75 285 3.0 8.0 0.00 0.00 0.00 78 1021.1
20260502025234 75 262 3.0 8.0 0.00 0.00 0.00 78 1021.1
20260502025115 75 212 3.0 8.0 0.00 0.00 0.00 78 1021.0
20260502025016 75 242 3.0 8.0 0.00 0.00 0.00 78 1021.0
20260502024938 75 258 3.0 8.0 0.00 0.00 0.00 79 1021.1
20260502024817 75 280 4.0 8.0 0.00 0.00 0.00 79 1020.9
20260502024717 75 261 3.0 8.0 0.00 0.00 0.00 79 1020.8
20260502024618 75 271 3.0 8.0 0.00 0.00 0.00 79 1020.8
20260502024505 75 227 4.0 8.0 0.00 0.00 0.00 79 1020.9
20260502024408 75 261 4.0 8.0 0.00 0.00 0.00 79 1020.7
20260502024308 75 230 3.0 8.0 0.00 0.00 0.00 79 1020.7
20260502024210 75 289 3.0 7.0 0.00 0.00 0.00 79 1020.7
20260502024111 75 253 3.0 9.0 0.00 0.00 0.00 79 1020.6
20260502024013 75 238 4.0 9.0 0.00 0.00 0.00 79 1020.7
20260502023921 75 238 4.0 9.0 0.00 0.00 0.00 79 1020.7
20260502023841 75 249 4.0 9.0 0.00 0.00 0.00 79 1020.6
20260502023743 75 312 4.0 9.0 0.00 0.00 0.00 79 1020.5
20260502023645 75 271 4.0 9.0 0.00 0.00 0.00 79 1020.5
20260502023505 75 222 4.0 15.0 0.00 0.00 0.00 79 1020.3
20260502023407 75 244 4.0 15.0 0.00 0.00 0.00 79 1020.3
20260502023308 75 218 4.0 15.0 0.00 0.00 0.00 79 1020.4
20260502023210 75 204 5.0 15.0 0.00 0.00 0.00 79 1020.3
20260502023118 75 244 4.0 15.0 0.00 0.00 0.00 79 1020.4
20260502023018 75 263 5.0 15.0 0.00 0.00 0.00 79 1020.3
20260502022940 75 224 5.0 15.0 0.00 0.00 0.00 79 1020.2
20260502022821 75 291 5.0 15.0 0.00 0.00 0.00 79 1020.2
20260502022704 75 271 6.0 15.0 0.00 0.00 0.00 80 1020.3
20260502022608 75 277 6.0 15.0 0.00 0.00 0.00 80 1020.3
20260502022511 75 232 4.0 11.0 0.00 0.00 0.00 80 1020.1
20260502022417 75 265 4.0 11.0 0.00 0.00 0.00 80 1020.2
20260502022320 75 223 5.0 11.0 0.00 0.00 0.00 80 1020.2
20260502022223 75 236 5.0 11.0 0.00 0.00 0.00 80 1020.1
20260502022106 75 276 4.0 11.0 0.00 0.00 0.00 80 1020.2
20260502022007 75 268 4.0 11.0 0.00 0.00 0.00 80 1020.1
20260502021909 75 207 5.0 11.0 0.00 0.00 0.00 80 1020.1
20260502021811 75 255 5.0 11.0 0.00 0.00 0.00 80 1020.1
20260502021718 75 273 4.0 10.0 0.00 0.00 0.00 80 1020.1
20260502021618 75 278 5.0 10.0 0.00 0.00 0.00 80 1020.1
20260502021520 75 284 5.0 10.0 0.00 0.00 0.00 80 1020.1
20260502021419 75 258 4.0 11.0 0.00 0.00 0.00 80 1020.3
20260502021341 75 273 5.0 11.0 0.00 0.00 0.00 80 1020.2
20260502021242 75 265 6.0 11.0 0.00 0.00 0.00 80 1020.2
20260502021122 75 294 7.0 11.0 0.00 0.00 0.00 80 1020.2
20260502021023 75 234 6.0 11.0 0.00 0.00 0.00 80 1020.3
20260502020910 75 265 5.0 11.0 0.00 0.00 0.00 80 1020.3
20260502020811 75 314 5.0 11.0 0.00 0.00 0.00 80 1020.2
20260502020733 75 258 6.0 11.0 0.00 0.00 0.00 80 1020.2
20260502020636 75 271 6.0 11.0 0.00 0.00 0.00 80 1020.2
20260502020516 75 275 5.0 11.0 0.00 0.00 0.00 80 1020.3
20260502020417 75 273 5.0 11.0 0.00 0.00 0.00 80 1020.3
20260502020320 75 275 6.0 11.0 0.00 0.00 0.00 80 1020.2
20260502020208 75 277 6.0 11.0 0.00 0.00 0.00 80 1020.2
20260502020109 75 284 6.0 11.0 0.00 0.00 0.00 80 1020.2
20260502020012 75 273 7.0 11.0 0.00 0.00 0.00 80 1020.2
20260502015915 75 270 7.0 11.0 0.00 0.00 0.00 80 1020.3
20260502015817 75 261 7.0 11.0 0.00 0.00 0.00 80 1020.2
20260502015716 75 272 6.0 11.0 0.00 0.00 0.00 80 1020.2
20260502015619 75 281 6.0 11.0 0.00 0.00 0.00 80 1020.2
20260502015523 75 275 5.0 11.0 0.00 0.00 0.00 80 1020.3
20260502015425 75 286 5.0 11.0 0.00 0.00 0.00 80 1020.3
20260502015306 75 284 6.0 11.0 0.00 0.00 0.00 80 1020.2
20260502015208 75 271 6.0 11.0 0.00 0.00 0.00 80 1020.2
20260502015108 75 274 6.0 11.0 0.00 0.00 0.00 80 1020.3
20260502015009 76 236 6.0 11.0 0.00 0.00 0.00 80 1020.2
20260502014930 76 285 5.0 11.0 0.00 0.00 0.00 80 1020.1
20260502014832 76 286 5.0 11.0 0.00 0.00 0.00 80 1020.2
20260502014710 76 250 5.0 13.0 0.00 0.00 0.00 80 1020.2
20260502014614 76 273 4.0 13.0 0.00 0.00 0.00 79 1020.1
20260502014517 76 291 4.0 13.0 0.00 0.00 0.00 79 1020.2
20260502014420 76 279 6.0 13.0 0.00 0.00 0.00 79 1020.2
20260502014323 76 242 7.0 13.0 0.00 0.00 0.00 79 1020.2
20260502014222 76 280 6.0 13.0 0.00 0.00 0.00 79 1020.1
20260502014143 76 266 6.0 13.0 0.00 0.00 0.00 79 1020.1
20260502014044 76 277 7.0 13.0 0.00 0.00 0.00 79 1020.1
20260502013924 76 273 6.0 13.0 0.00 0.00 0.00 79 1019.9
20260502013808 76 300 3.0 13.0 0.00 0.00 0.00 79 1020.1
20260502013708 76 281 4.0 13.0 0.00 0.00 0.00 79 1019.9
20260502013609 76 261 5.0 13.0 0.00 0.00 0.00 79 1019.9
20260502013511 76 271 6.0 13.0 0.00 0.00 0.00 79 1019.8
20260502013412 76 281 8.0 13.0 0.00 0.00 0.00 79 1019.9
20260502013330 76 270 9.0 13.0 0.00 0.00 0.00 79 1019.9
20260502013231 76 284 7.0 13.0 0.00 0.00 0.00 79 1019.8
20260502013113 76 236 5.0 10.0 0.00 0.00 0.00 79 1019.9
20260502013017 76 278 6.0 10.0 0.00 0.00 0.00 79 1019.9
20260502012918 76 194 6.0 10.0 0.00 0.00 0.00 79 1019.8
20260502012824 76 274 5.0 10.0 0.00 0.00 0.00 79 1019.8
20260502012708 76 241 4.0 11.0 0.00 0.00 0.00 79 1019.8
20260502012609 76 227 3.0 11.0 0.00 0.00 0.00 79 1019.7
20260502012511 76 262 3.0 11.0 0.00 0.00 0.00 79 1019.7
20260502012413 76 238 4.0 11.0 0.00 0.00 0.00 79 1019.7
20260502012317 76 265 5.0 11.0 0.00 0.00 0.00 79 1019.8
20260502012242 76 278 6.0 11.0 0.00 0.00 0.00 78 1019.7
20260502012122 76 266 4.0 11.0 0.00 0.00 0.00 78 1019.6
20260502012023 76 298 5.0 11.0 0.00 0.00 0.00 78 1019.6
20260502011924 76 292 6.0 11.0 0.00 0.00 0.00 78 1019.6
20260502011805 76 270 4.0 10.0 0.00 0.00 0.00 78 1019.5
20260502011705 76 262 4.0 7.0 0.00 0.00 0.00 78 1019.5
20260502011605 76 271 4.0 7.0 0.00 0.00 0.00 78 1019.5
20260502011511 76 288 3.0 7.0 0.00 0.00 0.00 78 1019.4
20260502011434 76 257 5.0 7.0 0.00 0.00 0.00 78 1019.4
20260502011333 76 215 5.0 8.0 0.00 0.00 0.00 78 1019.4
20260502011215 76 254 5.0 8.0 0.00 0.00 0.00 78 1019.4
20260502011118 76 269 5.0 8.0 0.00 0.00 0.00 78 1019.4
20260502011021 76 250 5.0 8.0 0.00 0.00 0.00 78 1019.3
20260502010925 76 236 4.0 8.0 0.00 0.00 0.00 78 1019.3
20260502010811 76 241 4.0 10.0 0.00 0.00 0.00 78 1019.2
20260502010713 76 252 5.0 10.0 0.00 0.00 0.00 77 1019.3
20260502010614 76 265 4.0 10.0 0.00 0.00 0.00 77 1019.3
20260502010516 76 264 3.0 10.0 0.00 0.00 0.00 77 1019.2
20260502010420 76 285 3.0 11.0 0.00 0.00 0.00 77 1019.2
20260502010319 76 252 3.0 11.0 0.00 0.00 0.00 77 1019.1
20260502010223 76 286 3.0 11.0 0.00 0.00 0.00 77 1019.2
20260502010109 76 270 4.0 11.0 0.00 0.00 0.00 77 1019.1
20260502010011 76 282 4.0 11.0 0.00 0.00 0.00 77 1019.2
20260502005914 76 279 3.0 11.0 0.00 0.00 0.00 77 1019.2
20260502005816 76 288 4.0 11.0 0.00 0.00 0.00 77 1019.1
20260502005719 76 267 6.0 11.0 0.00 0.00 0.00 77 1019.2
20260502005640 76 290 6.0 11.0 0.00 0.00 0.00 77 1019.1
20260502005542 76 258 6.0 11.0 0.00 0.00 0.00 76 1019.1
20260502005406 76 279 7.0 11.0 0.00 0.00 0.00 76 1019.1
20260502005308 76 269 7.0 10.0 0.00 0.00 0.00 76 1019.0
20260502005209 77 197 7.0 11.0 0.00 0.00 0.00 76 1019.0
20260502005111 77 273 7.0 14.0 0.00 0.00 0.00 76 1019.1
20260502005011 77 243 5.0 14.0 0.00 0.00 0.00 76 1019.0
20260502004912 77 276 6.0 14.0 0.00 0.00 0.00 75 1019.2
20260502004814 77 199 6.0 14.0 0.00 0.00 0.00 75 1019.0
20260502004721 77 277 5.0 14.0 0.00 0.00 0.00 75 1019.1
20260502004644 77 303 5.0 14.0 0.00 0.00 0.00 75 1019.1
20260502004524 77 257 5.0 14.0 0.00 0.00 0.00 74 1019.0
20260502004406 77 224 5.0 14.0 0.00 0.00 0.00 74 1019.1
20260502004309 77 233 8.0 14.0 0.00 0.00 0.00 74 1019.1
20260502004209 77 259 8.0 14.0 0.00 0.00 0.00 74 1019.0
20260502004113 77 269 5.0 11.0 0.00 0.00 0.00 73 1019.0
20260502004019 77 273 4.0 10.0 0.00 0.00 0.00 73 1019.0
20260502003922 77 267 4.0 10.0 0.00 0.00 0.00 73 1019.0
20260502003824 77 229 5.0 10.0 0.00 0.00 0.00 73 1019.0
20260502003705 77 252 5.0 10.0 0.00 0.00 0.00 73 1019.0
20260502003607 77 217 5.0 10.0 0.00 0.00 0.00 73 1019.1
20260502003529 77 235 4.0 10.0 0.00 0.00 0.00 73 1019.0
20260502003430 77 250 4.0 10.0 0.00 0.00 0.00 72 1019.0
20260502003335 77 284 5.0 10.0 0.00 0.00 0.00 72 1019.0
20260502003235 77 233 6.0 10.0 0.00 0.00 0.00 72 1019.1
20260502003117 77 269 5.0 9.0 0.00 0.00 0.00 72 1019.0
20260502003039 77 175 4.0 11.0 0.00 0.00 0.00 72 1019.0
20260502002941 77 288 4.0 11.0 0.00 0.00 0.00 72 1019.0
20260502002822 77 224 3.0 11.0 0.00 0.00 0.00 72 1019.0
20260502002723 77 247 4.0 11.0 0.00 0.00 0.00 72 1018.9
20260502002624 77 294 5.0 13.0 0.00 0.00 0.00 72 1018.9
20260502002544 77 219 4.0 13.0 0.00 0.00 0.00 71 1018.9
20260502002405 77 224 5.0 13.0 0.00 0.00 0.00 71 1018.9
20260502002310 78 228 6.0 13.0 0.00 0.00 0.00 71 1019.0
20260502002211 78 265 5.0 13.0 0.00 0.00 0.00 71 1018.9
20260502002112 78 286 5.0 13.0 0.00 0.00 0.00 71 1018.9
20260502002013 78 250 6.0 13.0 0.00 0.00 0.00 71 1018.9
20260502001915 78 277 6.0 13.0 0.00 0.00 0.00 70 1018.9
20260502001817 78 229 5.0 13.0 0.00 0.00 0.00 70 1018.8
20260502001718 78 254 5.0 12.0 0.00 0.00 0.00 70 1018.9
20260502001645 78 246 6.0 12.0 0.00 0.00 0.00 70 1018.9
20260502001546 78 234 6.0 12.0 0.00 0.00 0.00 70 1019.0
20260502001406 78 319 6.0 12.0 0.00 0.00 0.00 70 1018.9
20260502001308 78 250 7.0 14.0 0.00 0.00 0.00 70 1018.8
20260502001208 78 257 7.0 14.0 0.00 0.00 0.00 69 1018.7
20260502001109 78 239 7.0 14.0 0.00 0.00 0.00 69 1018.7
20260502001009 78 274 6.0 14.0 0.00 0.00 0.00 69 1018.7
20260502000917 78 199 5.0 14.0 0.00 0.00 0.00 69 1018.7
20260502000820 78 232 5.0 14.0 0.00 0.00 0.00 69 1018.7
20260502000721 78 267 5.0 14.0 0.00 0.00 0.00 68 1018.6
20260502000624 78 292 6.0 14.0 0.00 0.00 0.00 68 1018.7
20260502000505 78 248 7.0 14.0 0.00 0.00 0.00 68 1018.7
20260502000409 78 237 7.0 14.0 0.00 0.00 0.00 68 1018.7
20260502000317 78 235 7.0 12.0 0.00 0.00 0.00 68 1018.6
20260502000218 79 294 6.0 12.0 0.00 0.00 0.00 68 1018.6
20260502000118 79 205 6.0 12.0 0.00 0.00 0.00 67 1018.5
20260502000020 79 232 7.0 12.0 0.00 0.00 0.00 67 1018.5
20260501235923 79 225 6.0 12.0 0.00 0.00 0.00 67 1018.5
20260501235807 79 245 6.0 12.0 0.00 0.00 0.00 67 1018.5
20260501235713 79 276 7.0 12.0 0.00 0.00 0.00 67 1018.5
20260501235617 79 227 6.0 17.0 0.00 0.00 0.00 67 1018.5
20260501235518 79 267 7.0 17.0 0.00 0.00 0.00 67 1018.4
20260501235417 79 267 6.0 17.0 0.00 0.00 0.00 67 1018.2
20260501235318 79 250 5.0 17.0 0.00 0.00 0.00 67 1018.3
20260501235221 79 273 5.0 17.0 0.00 0.00 0.00 67 1018.3
20260501235124 79 319 6.0 17.0 0.00 0.00 0.00 67 1018.2
20260501235011 79 221 7.0 17.0 0.00 0.00 0.00 67 1018.2
20260501234912 79 257 8.0 17.0 0.00 0.00 0.00 67 1018.3
20260501234813 79 279 8.0 17.0 0.00 0.00 0.00 67 1018.3
20260501234714 79 251 5.0 14.0 0.00 0.00 0.00 67 1018.2
20260501234617 80 262 6.0 14.0 0.00 0.00 0.00 67 1018.2
20260501234518 80 274 7.0 14.0 0.00 0.00 0.00 67 1018.3
20260501234418 80 294 5.0 14.0 0.00 0.00 0.00 67 1018.1
20260501234304 80 239 4.0 14.0 0.00 0.00 0.00 66 1018.2
20260501234225 80 321 5.0 14.0 0.00 0.00 0.00 66 1018.2
20260501234126 80 240 6.0 14.0 0.00 0.00 0.00 66 1018.2
20260501234028 80 285 5.0 12.0 0.00 0.00 0.00 66 1018.2
20260501233907 80 217 6.0 12.0 0.00 0.00 0.00 66 1018.2
20260501233808 80 261 7.0 12.0 0.00 0.00 0.00 65 1018.1
20260501233710 80 276 6.0 10.0 0.00 0.00 0.00 65 1018.2
20260501233611 80 257 5.0 10.0 0.00 0.00 0.00 65 1018.0
20260501233535 80 270 5.0 10.0 0.00 0.00 0.00 65 1018.1
20260501233414 80 271 5.0 10.0 0.00 0.00 0.00 65 1018.0
20260501233314 80 228 6.0 10.0 0.00 0.00 0.00 65 1018.0
20260501233216 81 273 7.0 10.0 0.00 0.00 0.00 65 1018.1
20260501233137 81 271 6.0 9.0 0.00 0.00 0.00 64 1018.1
20260501233017 81 297 5.0 9.0 0.00 0.00 0.00 64 1017.9
20260501232918 81 265 5.0 9.0 0.00 0.00 0.00 64 1018.1
20260501232820 81 234 5.0 9.0 0.00 0.00 0.00 64 1017.9
20260501232705 81 302 3.0 10.0 0.00 0.00 0.00 64 1017.9
20260501232608 81 157 2.0 10.0 0.00 0.00 0.00 64 1017.9
20260501232507 81 168 4.0 10.0 0.00 0.00 0.00 64 1018.0
20260501232409 81 200 6.0 10.0 0.00 0.00 0.00 63 1017.9
20260501232312 81 259 5.0 10.0 0.00 0.00 0.00 63 1017.8
20260501232214 81 234 3.0 9.0 0.00 0.00 0.00 64 1017.9
20260501232117 81 297 3.0 9.0 0.00 0.00 0.00 64 1017.7
20260501232024 81 257 4.0 9.0 0.00 0.00 0.00 64 1017.8
20260501231906 81 273 5.0 9.0 0.00 0.00 0.00 64 1017.8
20260501231808 81 256 4.0 9.0 0.00 0.00 0.00 64 1017.8
20260501231730 81 277 4.0 9.0 0.00 0.00 0.00 64 1017.8
20260501231611 81 343 4.0 9.0 0.00 0.00 0.00 64 1017.8
20260501231512 81 298 3.0 9.0 0.00 0.00 0.00 65 1017.9
20260501231415 81 286 3.0 11.0 0.00 0.00 0.00 65 1017.7
20260501231320 81 212 4.0 11.0 0.00 0.00 0.00 64 1017.8
20260501231222 81 224 4.0 11.0 0.00 0.00 0.00 64 1017.7
20260501231124 81 231 4.0 11.0 0.00 0.00 0.00 65 1017.7
20260501231025 81 217 5.0 11.0 0.00 0.00 0.00 64 1017.7
20260501230905 81 172 4.0 11.0 0.00 0.00 0.00 64 1017.6
20260501230808 81 149 4.0 11.0 0.00 0.00 0.00 65 1017.6
20260501230732 81 242 6.0 11.0 0.00 0.00 0.00 65 1017.6
20260501230614 81 210 6.0 11.0 0.00 0.00 0.00 65 1017.6
20260501230516 81 250 5.0 10.0 0.00 0.00 0.00 65 1017.7
20260501230419 82 272 5.0 11.0 0.00 0.00 0.00 64 1017.7
20260501230321 82 178 4.0 11.0 0.00 0.00 0.00 65 1017.6
20260501230223 82 234 3.0 11.0 0.00 0.00 0.00 65 1017.6
20260501230110 82 273 3.0 11.0 0.00 0.00 0.00 65 1017.5
20260501230009 82 262 5.0 11.0 0.00 0.00 0.00 64 1017.7
20260501225910 82 286 6.0 11.0 0.00 0.00 0.00 64 1017.6
20260501225813 82 292 5.0 11.0 0.00 0.00 0.00 64 1017.6
20260501225735 82 207 5.0 11.0 0.00 0.00 0.00 64 1017.6
20260501225636 82 264 6.0 11.0 0.00 0.00 0.00 64 1017.5
20260501225516 82 204 5.0 11.0 0.00 0.00 0.00 63 1017.5
20260501225437 82 205 3.0 11.0 0.00 0.00 0.00 64 1017.5
20260501225318 82 292 3.0 11.0 0.00 0.00 0.00 64 1017.5
20260501225221 82 281 4.0 11.0 0.00 0.00 0.00 64 1017.5
20260501225143 82 257 5.0 11.0 0.00 0.00 0.00 64 1017.6
20260501225023 82 263 5.0 10.0 0.00 0.00 0.00 64 1017.4
20260501224924 82 294 3.0 11.0 0.00 0.00 0.00 64 1017.4
20260501224825 82 281 3.0 11.0 0.00 0.00 0.00 64 1017.4
20260501224706 82 227 4.0 11.0 0.00 0.00 0.00 63 1017.3
20260501224633 82 250 5.0 11.0 0.00 0.00 0.00 64 1017.2
20260501224513 82 281 5.0 11.0 0.00 0.00 0.00 64 1017.2
20260501224414 82 269 5.0 11.0 0.00 0.00 0.00 64 1017.2
20260501224315 82 213 4.0 11.0 0.00 0.00 0.00 63 1017.2
20260501224217 82 250 6.0 11.0 0.00 0.00 0.00 63 1017.3
20260501224118 82 211 6.0 14.0 0.00 0.00 0.00 63 1017.2
20260501224020 82 224 5.0 14.0 0.00 0.00 0.00 63 1017.1
20260501223906 82 295 5.0 14.0 0.00 0.00 0.00 63 1017.2
20260501223808 83 210 5.0 14.0 0.00 0.00 0.00 63 1017.2
20260501223712 83 200 4.0 14.0 0.00 0.00 0.00 62 1017.1
20260501223634 83 223 6.0 14.0 0.00 0.00 0.00 62 1017.2
20260501223515 83 198 7.0 14.0 0.00 0.00 0.00 62 1017.2
20260501223418 83 224 7.0 14.0 0.00 0.00 0.00 62 1017.0
20260501223320 83 259 4.0 14.0 0.00 0.00 0.00 62 1017.1
20260501223225 83 271 4.0 14.0 0.00 0.00 0.00 62 1017.1
20260501223124 83 302 6.0 14.0 0.00 0.00 0.00 62 1016.9
20260501223021 84 200 6.0 14.0 0.00 0.00 0.00 62 1016.9
20260501222922 84 255 6.0 11.0 0.00 0.00 0.00 62 1016.9
20260501222825 84 272 4.0 10.0 0.00 0.00 0.00 62 1016.9
20260501222725 84 245 2.0 10.0 0.00 0.00 0.00 62 1017.0
20260501222607 84 207 3.0 10.0 0.00 0.00 0.00 62 1017.1
20260501222510 84 197 4.0 10.0 0.00 0.00 0.00 62 1016.9
20260501222416 84 167 4.0 10.0 0.00 0.00 0.00 62 1017.2
20260501222317 84 239 5.0 10.0 0.00 0.00 0.00 62 1017.1
20260501222219 84 197 4.0 10.0 0.00 0.00 0.00 62 1017.0
20260501222140 84 252 3.0 10.0 0.00 0.00 0.00 63 1016.9
20260501222021 84 194 4.0 10.0 0.00 0.00 0.00 62 1017.0
20260501221925 84 237 5.0 10.0 0.00 0.00 0.00 62 1016.9
20260501221808 84 157 4.0 10.0 0.00 0.00 0.00 62 1017.0
20260501221713 84 277 4.0 10.0 0.00 0.00 0.00 62 1016.9
20260501221617 84 232 4.0 10.0 0.00 0.00 0.00 62 1016.9
20260501221540 84 179 3.0 10.0 0.00 0.00 0.00 62 1017.0
20260501221421 84 230 5.0 10.0 0.00 0.00 0.00 62 1016.9
20260501221324 84 202 4.0 10.0 0.00 0.00 0.00 62 1016.9
20260501221206 84 229 4.0 11.0 0.00 0.00 0.00 63 1016.9
20260501221130 84 300 4.0 11.0 0.00 0.00 0.00 63 1016.9
20260501221017 84 153 4.0 11.0 0.00 0.00 0.00 63 1016.9
20260501220921 84 243 5.0 11.0 0.00 0.00 0.00 62 1016.9
20260501220823 84 205 4.0 11.0 0.00 0.00 0.00 62 1016.9
20260501220706 84 190 5.0 10.0 0.00 0.00 0.00 63 1016.9
20260501220628 84 238 5.0 10.0 0.00 0.00 0.00 63 1016.8
20260501220508 83 236 5.0 10.0 0.00 0.00 0.00 64 1016.9
20260501220410 83 252 5.0 10.0 0.00 0.00 0.00 64 1016.9
20260501220332 83 213 4.0 10.0 0.00 0.00 0.00 63 1016.9
20260501220238 83 213 3.0 13.0 0.00 0.00 0.00 64 1016.9
20260501220120 83 136 3.0 13.0 0.00 0.00 0.00 64 1016.9
20260501220004 83 163 3.0 13.0 0.00 0.00 0.00 64 1016.9
20260501215906 83 198 4.0 13.0 0.00 0.00 0.00 64 1017.0
20260501215809 83 252 4.0 13.0 0.00 0.00 0.00 64 1016.9
20260501215732 83 221 5.0 13.0 0.00 0.00 0.00 64 1016.8
20260501215613 83 262 5.0 13.0 0.00 0.00 0.00 64 1016.9
20260501215520 83 244 5.0 13.0 0.00 0.00 0.00 64 1016.9
20260501215442 83 216 6.0 13.0 0.00 0.00 0.00 64 1016.9
20260501215323 83 232 6.0 12.0 0.00 0.00 0.00 63 1016.9
20260501215226 83 252 7.0 12.0 0.00 0.00 0.00 63 1017.0
20260501215107 83 242 6.0 12.0 0.00 0.00 0.00 63 1017.0
20260501215009 84 269 5.0 11.0 0.00 0.00 0.00 63 1016.9
20260501214910 84 212 5.0 9.0 0.00 0.00 0.00 63 1016.9
20260501214811 84 195 5.0 9.0 0.00 0.00 0.00 63 1017.0
20260501214717 84 259 5.0 9.0 0.00 0.00 0.00 62 1016.8
20260501214617 84 252 6.0 9.0 0.00 0.00 0.00 62 1016.9
20260501214519 84 207 5.0 9.0 0.00 0.00 0.00 62 1016.8
20260501214421 84 273 4.0 9.0 0.00 0.00 0.00 62 1016.9
20260501214324 84 240 4.0 9.0 0.00 0.00 0.00 62 1016.9
20260501214224 84 259 5.0 9.0 0.00 0.00 0.00 62 1016.9
20260501214127 84 249 5.0 10.0 0.00 0.00 0.00 62 1017.1
20260501214052 84 234 4.0 10.0 0.00 0.00 0.00 62 1017.1
20260501213932 84 246 5.0 12.0 0.00 0.00 0.00 62 1017.1
20260501213811 84 186 6.0 12.0 0.00 0.00 0.00 62 1017.1
20260501213713 84 221 6.0 12.0 0.00 0.00 0.00 61 1017.2
20260501213617 84 242 5.0 12.0 0.00 0.00 0.00 62 1017.1
20260501213521 84 203 4.0 12.0 0.00 0.00 0.00 62 1017.2
20260501213422 84 231 5.0 12.0 0.00 0.00 0.00 61 1017.2
20260501213324 84 225 6.0 12.0 0.00 0.00 0.00 61 1017.2
20260501213210 85 203 6.0 14.0 0.00 0.00 0.00 61 1017.0
20260501213113 85 212 5.0 14.0 0.00 0.00 0.00 61 1017.1
20260501213015 85 215 5.0 14.0 0.00 0.00 0.00 61 1017.1
20260501212937 85 279 5.0 14.0 0.00 0.00 0.00 62 1017.0
20260501212818 85 305 6.0 14.0 0.00 0.00 0.00 62 1017.0
20260501212741 84 263 5.0 14.0 0.00 0.00 0.00 62 1017.0
20260501212643 84 252 4.0 14.0 0.00 0.00 0.00 62 1017.0
20260501212509 84 271 7.0 14.0 0.00 0.00 0.00 62 1017.1
20260501212409 84 248 8.0 14.0 0.00 0.00 0.00 61 1016.9
20260501212333 85 250 8.0 13.0 0.00 0.00 0.00 62 1017.0
20260501212233 85 197 8.0 13.0 0.00 0.00 0.00 62 1017.0
20260501212113 85 244 7.0 13.0 0.00 0.00 0.00 62 1017.0
20260501212014 85 233 6.0 13.0 0.00 0.00 0.00 62 1016.9
20260501211913 85 277 7.0 13.0 0.00 0.00 0.00 62 1016.9
20260501211815 85 257 6.0 13.0 0.00 0.00 0.00 62 1017.1
20260501211715 85 260 6.0 13.0 0.00 0.00 0.00 63 1017.0
20260501211623 85 328 6.0 13.0 0.00 0.00 0.00 62 1017.0
20260501211524 85 220 6.0 13.0 0.00 0.00 0.00 62 1017.0
20260501211406 85 234 7.0 13.0 0.00 0.00 0.00 61 1017.0
20260501211308 85 284 6.0 13.0 0.00 0.00 0.00 61 1017.0
20260501211231 85 247 5.0 11.0 0.00 0.00 0.00 61 1017.2
20260501211112 86 219 5.0 11.0 0.00 0.00 0.00 61 1017.1
20260501211013 86 212 4.0 11.0 0.00 0.00 0.00 61 1017.0
20260501210919 86 271 3.0 13.0 0.00 0.00 0.00 61 1017.1
20260501210822 85 313 4.0 13.0 0.00 0.00 0.00 61 1017.2
20260501210723 85 233 4.0 13.0 0.00 0.00 0.00 61 1017.1
20260501210605 86 227 4.0 13.0 0.00 0.00 0.00 62 1017.1
20260501210507 86 248 5.0 13.0 0.00 0.00 0.00 61 1017.2
20260501210430 86 180 5.0 13.0 0.00 0.00 0.00 61 1017.2
20260501210310 86 273 4.0 13.0 0.00 0.00 0.00 61 1017.1
20260501210215 86 197 4.0 13.0 0.00 0.00 0.00 62 1017.2
20260501210138 86 205 5.0 13.0 0.00 0.00 0.00 62 1017.3
20260501210040 86 200 4.0 10.0 0.00 0.00 0.00 62 1017.2
20260501205920 86 222 4.0 10.0 0.00 0.00 0.00 62 1017.2
20260501205805 86 302 5.0 10.0 0.00 0.00 0.00 62 1017.3
20260501205707 85 201 5.0 10.0 0.00 0.00 0.00 62 1017.2
20260501205608 85 261 4.0 10.0 0.00 0.00 0.00 62 1017.2
20260501205532 85 204 4.0 10.0 0.00 0.00 0.00 62 1017.2
20260501205412 86 238 5.0 10.0 0.00 0.00 0.00 61 1017.2
20260501205315 86 169 6.0 10.0 0.00 0.00 0.00 61 1017.3
20260501205216 86 229 5.0 11.0 0.00 0.00 0.00 62 1017.3
20260501205140 86 259 4.0 11.0 0.00 0.00 0.00 62 1017.3
20260501205041 86 229 3.0 11.0 0.00 0.00 0.00 62 1017.3
20260501204920 86 172 3.0 11.0 0.00 0.00 0.00 63 1017.3
20260501204823 86 197 4.0 14.0 0.00 0.00 0.00 63 1017.3
20260501204744 86 302 5.0 14.0 0.00 0.00 0.00 62 1017.2
20260501204606 86 263 6.0 14.0 0.00 0.00 0.00 62 1017.1
20260501204513 86 204 5.0 14.0 0.00 0.00 0.00 62 1017.3
20260501204416 85 265 4.0 14.0 0.00 0.00 0.00 62 1017.2
20260501204320 86 149 4.0 14.0 0.00 0.00 0.00 61 1017.2
20260501204220 86 198 5.0 14.0 0.00 0.00 0.00 61 1017.3
20260501204122 86 202 6.0 14.0 0.00 0.00 0.00 61 1017.3
20260501204024 86 254 5.0 14.0 0.00 0.00 0.00 61 1017.3
20260501203905 86 223 3.0 10.0 0.00 0.00 0.00 62 1017.2
20260501203811 86 303 3.0 10.0 0.00 0.00 0.00 62 1017.2
20260501203713 86 292 4.0 10.0 0.00 0.00 0.00 62 1017.2
20260501203615 86 290 4.0 10.0 0.00 0.00 0.00 62 1017.1
20260501203520 86 286 5.0 10.0 0.00 0.00 0.00 63 1017.1
20260501203423 86 227 6.0 10.0 0.00 0.00 0.00 62 1017.1
20260501203304 86 228 6.0 10.0 0.00 0.00 0.00 62 1017.2
20260501203227 86 266 4.0 11.0 0.00 0.00 0.00 63 1017.2
20260501203113 86 200 3.0 11.0 0.00 0.00 0.00 63 1017.2
20260501203017 86 216 4.0 11.0 0.00 0.00 0.00 63 1017.2
20260501202941 86 190 5.0 11.0 0.00 0.00 0.00 63 1017.2
20260501202824 86 203 6.0 11.0 0.00 0.00 0.00 63 1017.2
20260501202707 86 217 5.0 12.0 0.00 0.00 0.00 63 1017.2
20260501202629 86 227 4.0 12.0 0.00 0.00 0.00 63 1017.3
20260501202532 86 263 3.0 12.0 0.00 0.00 0.00 63 1017.2
20260501202434 86 190 3.0 12.0 0.00 0.00 0.00 63 1017.3
20260501202321 85 197 3.0 12.0 0.00 0.00 0.00 64 1017.2
20260501202224 85 235 2.0 12.0 0.00 0.00 0.00 63 1017.2
20260501202104 85 163 4.0 12.0 0.00 0.00 0.00 63 1017.2
20260501202007 85 129 5.0 12.0 0.00 0.00 0.00 63 1017.3
20260501201910 86 229 5.0 12.0 0.00 0.00 0.00 64 1017.3
20260501201813 86 188 3.0 11.0 0.00 0.00 0.00 63 1017.3
20260501201717 86 169 4.0 12.0 0.00 0.00 0.00 64 1017.3
20260501201623 86 184 6.0 12.0 0.00 0.00 0.00 64 1017.2
20260501201507 85 254 5.0 12.0 0.00 0.00 0.00 63 1017.2
20260501201409 85 233 5.0 12.0 0.00 0.00 0.00 64 1017.3
20260501201312 85 261 5.0 12.0 0.00 0.00 0.00 63 1017.2
20260501201216 85 277 5.0 12.0 0.00 0.00 0.00 63 1017.2
20260501201116 85 261 4.0 12.0 0.00 0.00 0.00 64 1017.3
20260501201024 85 276 4.0 12.0 0.00 0.00 0.00 63 1017.3
20260501200906 85 213 6.0 12.0 0.00 0.00 0.00 63 1017.2
20260501200810 85 211 5.0 12.0 0.00 0.00 0.00 64 1017.2
20260501200713 85 296 4.0 9.0 0.00 0.00 0.00 64 1017.3
20260501200615 85 215 5.0 9.0 0.00 0.00 0.00 64 1017.2
20260501200517 86 295 5.0 11.0 0.00 0.00 0.00 64 1017.3
20260501200419 86 182 4.0 11.0 0.00 0.00 0.00 64 1017.3
20260501200306 86 236 2.0 11.0 0.00 0.00 0.00 64 1017.3
20260501200206 86 208 3.0 11.0 0.00 0.00 0.00 65 1017.4
20260501200130 86 138 4.0 11.0 0.00 0.00 0.00 64 1017.3
20260501200012 86 286 5.0 11.0 0.00 0.00 0.00 64 1017.3
20260501195914 86 222 4.0 11.0 0.00 0.00 0.00 64 1017.3
20260501195816 86 236 3.0 11.0 0.00 0.00 0.00 64 1017.4
20260501195717 86 279 5.0 11.0 0.00 0.00 0.00 64 1017.5
20260501195645 86 201 7.0 12.0 0.00 0.00 0.00 63 1017.5
20260501195505 86 243 6.0 11.0 0.00 0.00 0.00 63 1017.5
20260501195410 86 251 5.0 11.0 0.00 0.00 0.00 63 1017.5
20260501195331 87 217 4.0 8.0 0.00 0.00 0.00 63 1017.5
20260501195232 86 113 2.0 9.0 0.00 0.00 0.00 64 1017.5
20260501195112 86 134 2.0 9.0 0.00 0.00 0.00 64 1017.5
20260501195034 86 286 2.0 9.0 0.00 0.00 0.00 64 1017.5
20260501194917 86 156 2.0 9.0 0.00 0.00 0.00 64 1017.4
20260501194818 85 204 2.0 9.0 0.00 0.00 0.00 65 1017.5
20260501194704 85 178 1.0 9.0 0.00 0.00 0.00 65 1017.6
20260501194627 85 219 2.0 9.0 0.00 0.00 0.00 65 1017.5
20260501194510 85 126 2.0 9.0 0.00 0.00 0.00 65 1017.7
20260501194414 84 226 3.0 9.0 0.00 0.00 0.00 65 1017.5
20260501194317 84 206 3.0 11.0 0.00 0.00 0.00 65 1017.5
20260501194219 84 255 3.0 13.0 0.00 0.00 0.00 65 1017.6
20260501194126 84 248 3.0 13.0 0.00 0.00 0.00 65 1017.6
20260501194008 84 200 3.0 13.0 0.00 0.00 0.00 64 1017.7
20260501193910 84 175 4.0 13.0 0.00 0.00 0.00 64 1017.6
20260501193812 84 188 4.0 13.0 0.00 0.00 0.00 64 1017.7
20260501193714 84 271 4.0 13.0 0.00 0.00 0.00 64 1017.8
20260501193618 85 198 5.0 13.0 0.00 0.00 0.00 64 1017.8
20260501193539 85 203 6.0 13.0 0.00 0.00 0.00 64 1017.8
20260501193422 85 261 5.0 13.0 0.00 0.00 0.00 64 1017.7
20260501193324 84 210 3.0 13.0 0.00 0.00 0.00 64 1017.8
20260501193207 84 257 3.0 9.0 0.00 0.00 0.00 64 1017.9
20260501193108 84 239 3.0 9.0 0.00 0.00 0.00 64 1017.8
20260501193012 84 198 5.0 9.0 0.00 0.00 0.00 64 1018.0
20260501192914 84 192 6.0 9.0 0.00 0.00 0.00 63 1018.0
20260501192820 85 218 6.0 8.0 0.00 0.00 0.00 63 1017.8
20260501192741 85 225 5.0 9.0 0.00 0.00 0.00 63 1017.8
20260501192622 85 188 5.0 9.0 0.00 0.00 0.00 63 1017.9
20260501192506 85 200 2.0 9.0 0.00 0.00 0.00 64 1017.9
20260501192409 85 206 1.0 9.0 0.00 0.00 0.00 63 1018.0
20260501192310 85 208 1.0 9.0 0.00 0.00 0.00 63 1018.0
20260501192214 85 209 2.0 9.0 0.00 0.00 0.00 63 1018.0
20260501192121 85 213 3.0 9.0 0.00 0.00 0.00 63 1018.1
20260501192043 85 231 4.0 11.0 0.00 0.00 0.00 62 1018.1
20260501191924 85 123 5.0 11.0 0.00 0.00 0.00 62 1018.1
20260501191807 86 219 5.0 11.0 0.00 0.00 0.00 61 1018.0
20260501191711 86 202 4.0 11.0 0.00 0.00 0.00 62 1018.1
20260501191612 86 227 3.0 11.0 0.00 0.00 0.00 62 1018.1
20260501191515 86 161 3.0 11.0 0.00 0.00 0.00 62 1018.1
20260501191422 86 281 4.0 11.0 0.00 0.00 0.00 63 1018.1
20260501191324 85 153 5.0 11.0 0.00 0.00 0.00 63 1018.1
20260501191207 85 119 5.0 11.0 0.00 0.00 0.00 62 1018.1
20260501191111 85 90 5.0 9.0 0.00 0.00 0.00 61 1018.2
20260501191013 85 111 3.0 9.0 0.00 0.00 0.00 62 1018.2
20260501190916 85 194 4.0 8.0 0.00 0.00 0.00 62 1018.2
20260501190822 85 119 5.0 8.0 0.00 0.00 0.00 63 1018.2